Regional Weather Roundup
Issued by NWS

Home | Current Version | Previous Version | Text Only | Print | Product List | Glossary On
Versions: 1 2 3 4 5 6 7 8 9 10 11 12 13 14 15 16 17 18 19 20 21 22 23 24 25 26 27 28 29 30 31 32 33 34 35 36 37 38 39 40 41 42 43 44 45 46 47 48 49 50
000
ASUS43 KDTX 280601
RWRMI
MICHIGAN HOURLY REGIONAL WEATHER ROUNDUP
NATIONAL WEATHER SERVICE DETROIT/PONTIAC MI
200 AM EDT SAT MAR 28 2015

NOTE: "FAIR" INDICATES FEW OR NO CLOUDS BELOW 12,000 FEET WITH NO
SIGNIFICANT WEATHER AND/OR OBSTRUCTION TO VISIBILITY.

MIZ047>049-052>055-059>063-066>070-074>076-081>083-280700-
SOUTHEAST LOWER MICHIGAN

CITY           SKY/WX    TMP DP  RH WIND       PRES   REMARKS
ADRIAN         CLEAR     18   9  68 E12       30.18R WCI   5
6HR MIN TEMP:  18; 6HR MAX TEMP:  25;

ALMA           CLEAR     16   5  62 N5        30.21S WCI   8
6HR MIN TEMP:  15; 6HR MAX TEMP:  24;

ANN ARBOR      CLEAR     16   6  65 N8        30.17S WCI   5
BAD AXE        LGT SNOW  19  13  76 N12       30.15F WCI   7
CARO           CLOUDY    18   7  62 N9        30.17S WCI   6
DETROIT CITY   CLOUDY    19   6  57 N6        30.16S WCI  11
6HR MIN TEMP:  18; 6HR MAX TEMP:  24;

DETROIT        PTCLDY    15   6  67 NW5       30.18S WCI   8
6HR MIN TEMP:  15; 6HR MAX TEMP:  25;

FLINT          CLEAR     14   7  73 NW6       30.17F WCI   5
6HR MIN TEMP:  13; 6HR MAX TEMP:  22;

GROSSE ILE     CLEAR     18   7  62 NW8       30.15F WCI   7
HILLSDALE      CLEAR     18   7  61 NE7       30.14R WCI   9
HOWELL         CLEAR     14   7  75 W3        30.16F
6HR MIN TEMP:  13; 6HR MAX TEMP:  22;


CITY           SKY/WX    TMP DP  RH WIND       PRES   REMARKS
JACKSON        CLEAR     15   7  70 NE5       30.17R WCI   8
6HR MIN TEMP:  15; 6HR MAX TEMP:  24;

LAMBERTVILLE   PTCLDY    19   9  63 N7        30.18R WCI  10
LANSING        MOCLDY    16   9  74 E3        30.19S
6HR MIN TEMP:  15; 6HR MAX TEMP:  24;

LAPEER         CLOUDY    15   9  76 NW5       30.15S WCI   7
MASON          CLEAR     15   8  73 E3        30.18R
MONROE         CLEAR     18   9  68 N8        30.16S WCI   7
MT. CLEMENS    FLURRIES  18   9  68 NW8       30.13S WCI   7
6HR MIN TEMP:  16; 6HR MAX TEMP:  20; 6HR PCP: TRACE;

PONTIAC        MOCLDY    14   6  70 NW5       30.13F WCI   6
6HR MIN TEMP:  13; 6HR MAX TEMP:  20;

PORT HOPE        N/A     24  10  55 NE16G22   30.13S WCI  11
6HR MIN TEMP:  19; 6HR MAX TEMP:  24;

PORT HURON     FLURRIES  18  14  86 NW5       30.15S WCI  11
TRI CITIES     CLEAR     17   6  62 NW8       30.20S WCI   7
6HR MIN TEMP:  17; 6HR MAX TEMP:  21;

TROY           MOCLDY    18   7  62 CALM      30.17S
SAGINAW HB     CLEAR     18   7  62 NW7       30.19S WCI   8
$$
MIZ043>046-050>051-056>058-064>065-071>073-077>080-280700-
SOUTHWEST LOWER MICHIGAN

CITY           SKY/WX    TMP DP  RH WIND       PRES   REMARKS
BATTLE CREEK   CLEAR     18   4  54 N6        30.17S WCI  10
6HR MIN TEMP:  18; 6HR MAX TEMP:  27;

BENTON HARBOR  CLEAR     18   4  54 VRB3      30.21R
6HR MIN TEMP:  18; 6HR MAX TEMP:  22;

BIG RAPIDS     CLEAR     12   4  70 CALM      30.19S
6HR MIN TEMP:  12; 6HR MAX TEMP:  20;

COLDWATER      CLEAR     19   5  56 N5        30.16R WCI  12
6HR MIN TEMP:  19; 6HR MAX TEMP:  26;

FREMONT        FAIR      15   1  53 N3        30.22R
HOLLAND        CLEAR     18   1  47 NE9       30.22S WCI   7
6HR MIN TEMP:  18; 6HR MAX TEMP:  24;

GRAND RAPIDS   CLEAR     15   2  56 N7        30.20S WCI   5
6HR MIN TEMP:  15; 6HR MAX TEMP:  26;

IONIA          FAIR      15   5  64 N6        30.19S WCI   7
KALAMAZOO      CLEAR     18   2  49 N6        30.18S WCI  10
6HR MIN TEMP:  17; 6HR MAX TEMP:  25;

LUDINGTON      CLEAR     13   6  72 CALM      30.23F
6HR MIN TEMP:  12; 6HR MAX TEMP:  21;

MARSHALL       PTCLDY    17   6  62 CALM      30.16S
MOUNT PLEASANT CLEAR     15   4  62 N5        30.20S WCI   7
6HR MIN TEMP:  15; 6HR MAX TEMP:  23;

MUSKEGON       CLEAR     17   4  56 NE6       30.23S WCI   9
6HR MIN TEMP:  16; 6HR MAX TEMP:  23;

SOUTH HAVEN    CLEAR     17   7  62 NE5       30.21S WCI  10
$$
MIZ016>042-280700-
NORTHERN LOWER MICHIGAN

CITY           SKY/WX    TMP DP  RH WIND       PRES   REMARKS
ALPENA         CLEAR     13   7  77 W5        30.20R WCI   5
6HR MIN TEMP:  13; 6HR MAX TEMP:  18;

BEAVER ISLAND  CLEAR      8   4  85 CALM      30.24S
6HR MIN TEMP:   8; 6HR MAX TEMP:  16;

BELLAIRE       CLEAR      9   6  87 CALM      30.25S
6HR MIN TEMP:   9; 6HR MAX TEMP:  18;

CADILLAC       CLEAR      8   1  75 CALM      30.16S
CHARLEVOIX     CLEAR     12   6  76 CALM      30.27R
6HR MIN TEMP:  12; 6HR MAX TEMP:  17;

FRANKFORT      CLEAR     17   3  54 CALM      30.23S
GAYLORD        CLEAR     10   1  67 CALM      30.16S
6HR MIN TEMP:  10; 6HR MAX TEMP:  15;

GRAYLING       CLEAR      6   1  79 W3        30.18S
6HR MIN TEMP:   6; 6HR MAX TEMP:  16;

HARBOR SPRINGS CLEAR     10   1  67 CALM      30.23S
HOUGHTON LAKE  CLEAR     10   2  69 NW3       30.18S
6HR MIN TEMP:  10; 6HR MAX TEMP:  17;

MANISTEE       CLEAR     10   5  79 CALM      30.23S
OSCODA         CLOUDY    16   8  70 NW10      30.18S WCI   3
PELLSTON       FAIR       7   2  80 W3        30.23S
6HR MIN TEMP:   7; 6HR MAX TEMP:  18;

ROGERS CITY    CLEAR     19  15  83 N7        30.20S WCI  10
TRAVERSE CITY  CLEAR     15   4  61 NE6       30.23S WCI   6
6HR MIN TEMP:  15; 6HR MAX TEMP:  19;

$$
MIZ007>008-015-280700-
EASTERN UPPER MICHIGAN

CITY           SKY/WX    TMP DP  RH WIND       PRES   REMARKS
KINROSS        CLEAR      5   3  92 NW7       30.21S WCI  -7
6HR MIN TEMP:   5; 6HR MAX TEMP:  12;

MACKINAC ISLAN CLEAR     11   6  80 N8        30.22S WCI   0
6HR MIN TEMP:  11; 6HR MAX TEMP:  17;

NEWBERRY       CLEAR     -4  -5  93 CALM      30.22R
S. S. MARIE    CLEAR      5   1  83 W3        30.22R
6HR MIN TEMP:   4; 6HR MAX TEMP:  12;

$$
MIZ004>006-011>014-085-280700-
CENTRAL UPPER MICHIGAN

CITY           SKY/WX    TMP DP  RH WIND       PRES   REMARKS
MANISTIQUE     CLEAR      2  -1  88 N6        30.24R WCI  -9
ESCANABA       CLEAR      5   3  92 W5        30.25S WCI  -4
6HR MIN TEMP:   5; 6HR MAX TEMP:  19;

MENOMINEE      CLEAR     12   9  85 CALM      30.24S
6HR MIN TEMP:  12; 6HR MAX TEMP:  23;

SAWYER-GWINN   CLEAR     -1  -4  85 CALM      30.19S
$$
MIZ001>003-009>011-084-280700-
WESTERN UPPER MICHIGAN

CITY           SKY/WX    TMP DP  RH WIND       PRES   REMARKS
IRON MOUNTAIN  CLEAR      7  -2  66 CALM      30.19S
6HR MIN TEMP:   7; 6HR MAX TEMP:  27;

HOUGHTON       CLEAR      6   3  87 W3        30.19S
6HR MIN TEMP:  -3; 6HR MAX TEMP:  19;

COPPER HARBOR    N/A      4  -1  80 W8        30.22S WCI  -9
6HR MIN TEMP:   3; 6HR MAX TEMP:  14;

IRONWOOD       CLEAR     10   9  92 CALM      30.16S
6HR MIN TEMP:   9; 6HR MAX TEMP:  25;

$$

ABBREVIATIONS USED IN REMARKS
   TC - TEMPERATURE IN CELSIUS
  WCI - WIND CHILL INDEX
   HX - HEAT INDEX
  VSB - VISIBILITY




USA.gov is the U.S. government's official web portal to all federal, state and local government web resources and services.